This demonstration page uses our WeatherBlox Daily Observations layout. Learn more.

Left ArrowRight Arrow

38.20091, -84.87328

Hourly Observations for July 24, 2021

Temp ( °F °C ) Dew Point ( °F °C ) Humidity (%) Winds ( mph kmh ) Pressure ( in mb ) Visibility ( mi km ) Precip ( " mm )
12:53 am 00:53 Clear 66 18.9 63 17.2 90 90 Calm 30.09 1019 10 16 0.00 0.00
1:53 am 01:53 Clear 67 19.4 64 17.8 91 91 Calm 30.08 1019 10 16 0.00 0.00
2:53 am 02:53 Clear 65 18.3 63 17.2 93 93 Calm 30.05 1018 10 16 0.00 0.00
3:53 am 03:53 Clear 65 18.3 62 16.7 90 90 Calm 30.04 1017 10 16 0.00 0.00
4:53 am 04:53 Clear 63 17.2 61 16.1 93 93 Calm 30.04 1017 10 16 0.00 0.00
5:53 am 05:53 Clear 63 17.2 61 16.1 93 93 Calm 30.05 1018 10 16 0.00 0.00
6:53 am 06:53 Sunny 61 16.1 60 15.6 97 97 Calm 30.06 1018 7 11 0.00 0.00
7:53 am 07:53 Sunny 67 19.4 63 17.2 87 87 Calm 30.05 1018 10 16 0.00 0.00
8:53 am 08:53 Sunny 72 22.2 66 18.9 82 82 Calm 30.06 1018 10 16 0.00 0.00
9:53 am 09:53 Sunny 77 25 66 18.9 69 69 SW 6 9 30.06 1018 10 16 0.00 0.00
10:53 am 10:53 Sunny 80 26.7 67 19.4 64 64 VRB 5 7 30.07 1018 10 16 0.00 0.00
12:53 pm 12:53 Sunny 84 28.9 65 18.3 53 53 SW 6 9 30.06 1018 10 16 0.00 0.00
1:53 pm 13:53 Sunny 85 29.4 66 18.9 53 53 SSW 7 11 30.04 1017 10 16 0.00 0.00
2:53 pm 14:53 Sunny 86 30 65 18.3 49 49 VRB 7 11 30.03 1017 10 16 0.00 0.00
3:53 pm 15:53 Sunny 87 30.6 65 18.3 48 48 SSW 8 13 30.00 1016 10 16 0.00 0.00
4:53 pm 16:53 Sunny 87 30.6 64 17.8 46 46 SW 6 9 29.99 1016 10 16 0.00 0.00
5:53 pm 17:53 Sunny 86 30 64 17.8 48 48 SW 8 13 29.98 1015 10 16 0.00 0.00
6:53 pm 18:53 Sunny 85 29.4 65 18.3 51 51 SW 9 15 29.97 1015 10 16 0.00 0.00
7:53 pm 19:53 Sunny 83 28.3 67 19.4 59 59 SSW 8 13 29.95 1014 10 16 0.00 0.00
8:53 pm 20:53 Sunny 80 26.7 68 20 67 67 SW 3 6 29.95 1014 10 16 0.00 0.00
9:53 pm 21:53 Clear 77 25 69 20.6 77 77 SSW 3 6 29.94 1014 10 16 0.00 0.00
10:53 pm 22:53 Clear 77 25 68 20 74 74 Calm 29.94 1014 10 16 0.00 0.00
11:53 pm 23:53 Mostly Clear 75 23.9 68 20 79 79 SSW 3 6 29.96 1015 10 16 0.00 0.00

Powered by AerisWeather